"Datum/tijd (MEZT)";"rws verwachting golfhoogte";"rws verwachting deininghoogte";"golfhoogte";"deininghoogte"
2024-04-18 01:00;128;21;126;20
2024-04-18 01:10;126;21;121;22
2024-04-18 01:20;123;21;122;22
2024-04-18 01:30;122;21;123;19
2024-04-18 01:40;121;21;123;22
2024-04-18 01:50;119;20;121;22
2024-04-18 02:00;117;20;115;19
2024-04-18 02:10;113;20;113;18
2024-04-18 02:20;111;21;111;20
2024-04-18 02:30;110;21;107;23
2024-04-18 02:40;109;22;110;23
2024-04-18 02:50;108;23;109;22
2024-04-18 03:00;109;22;107;22
2024-04-18 03:10;109;22;109;23
2024-04-18 03:20;107;21;111;22
2024-04-18 03:30;106;21;107;20
2024-04-18 03:40;104;20;100;19
2024-04-18 03:50;101;20;102;21
2024-04-18 04:00;100;20;98;20
2024-04-18 04:10;100;19;99;20
2024-04-18 04:20;100;19;102;20
2024-04-18 04:30;99;19;100;16
2024-04-18 04:40;98;19;99;18
2024-04-18 04:50;96;18;96;20
2024-04-18 05:00;95;18;94;20
2024-04-18 05:10;93;18;91;18
2024-04-18 05:20;92;18;93;16
2024-04-18 05:30;93;17;91;16
2024-04-18 05:40;92;16;93;18
2024-04-18 05:50;91;17;95;17
2024-04-18 06:00;90;17;90;15
2024-04-18 06:10;88;17;84;17
2024-04-18 06:20;87;17;86;19
2024-04-18 06:30;86;18;86;18
2024-04-18 06:40;85;18;87;17
2024-04-18 06:50;85;17;85;18
2024-04-18 07:00;84;17;81;18
2024-04-18 07:10;84;16;84;15
2024-04-18 07:20;83;15;85;15
2024-04-18 07:30;83;15;84;15
2024-04-18 07:40;82;15;83;14
2024-04-18 07:50;81;15;81;15
2024-04-18 08:00;81;15;79;14
2024-04-18 08:10;82;15;80;16
2024-04-18 08:20;83;15;83;17
2024-04-18 08:30;83;16;89;15
2024-04-18 08:40;83;15;85;15
2024-04-18 08:50;83;14;80;15
2024-04-18 09:00;82;13;79;13
2024-04-18 09:10;82;13;81;11
2024-04-18 09:20;85;13;83;12
2024-04-18 09:30;87;14;87;14
2024-04-18 09:40;90;14;93;15
2024-04-18 09:50;92;15;93;16
2024-04-18 10:00;94;15;92;15
2024-04-18 10:10;95;14;95;14
2024-04-18 10:20;97;14;98;13
2024-04-18 10:30;100;14;98;13
2024-04-18 10:40;100;14;104;15
2024-04-18 10:50;99;15;103;16
2024-04-18 11:00;100;16;97;15
2024-04-18 11:10;102;17;94;16
2024-04-18 11:20;103;17;102;18
2024-04-18 11:30;105;17;112;18
2024-04-18 11:40;108;17;110;17
2024-04-18 11:50;110;17;106;16
2024-04-18 12:00;110;17;108;16
2024-04-18 12:10;109;17;113;17
2024-04-18 12:20;111;17;111;17
2024-04-18 12:30;112;18;108;17
2024-04-18 12:40;111;18;116;20
2024-04-18 12:50;111;17;113;19
2024-04-18 13:00;110;17;108;16
2024-04-18 13:10;108;16;108;14
2024-04-18 13:20;107;15;105;14
2024-04-18 13:30;106;14;107;15
2024-04-18 13:40;104;15;108;15
2024-04-18 13:50;103;15;100;14
2024-04-18 14:00;102;14;98;15
2024-04-18 14:10;101;14;102;15
2024-04-18 14:20;103;14;103;13
2024-04-18 14:30;103;13;104;13
2024-04-18 14:40;103;13;106;12
2024-04-18 14:50;102;13;101;13
2024-04-18 15:00;101;14;100;13
2024-04-18 15:10;99;14;100;15
2024-04-18 15:20;97;14;97;16
2024-04-18 15:30;97;13;95;13
2024-04-18 15:40;96;13;95;11
2024-04-18 15:50;95;12;97;12
2024-04-18 16:00;94;12;96;13
2024-04-18 16:10;94;12;91;12
2024-04-18 16:20;94;12;93;12
2024-04-18 16:30;93;12;95;13
2024-04-18 16:40;93;12;93;12
2024-04-18 16:50;93;11;93;11
2024-04-18 17:00;92;11;91;11
2024-04-18 17:10;90;10;91;10
2024-04-18 17:20;89;10;92;10
2024-04-18 17:30;88;10;85;10
2024-04-18 17:40;87;10;84;11
2024-04-18 17:50;86;10;87;11
2024-04-18 18:00;85;10;88;10
2024-04-18 18:10;84;10;86;10
2024-04-18 18:20;84;10;80;10
2024-04-18 18:30;83;11;81;10
2024-04-18 18:40;82;11;83;12
2024-04-18 18:50;83;11;84;11
2024-04-18 19:00;84;10;81;10
2024-04-18 19:10;84;10;84;10
2024-04-18 19:20;84;10;87;9
2024-04-18 19:30;84;10;86;10
2024-04-18 19:40;84;10;84;10
2024-04-18 19:50;83;10;81;9
2024-04-18 20:00;82;10;82;11
2024-04-18 20:10;82;11;81;11
2024-04-18 20:20;84;11;83;11
2024-04-18 20:30;85;11;85;11
2024-04-18 20:40;85;11;87;10
2024-04-18 20:50;85;11;88;10
2024-04-18 21:00;86;11;82;11
2024-04-18 21:10;87;11;84;11
2024-04-18 21:20;89;11;90;11
2024-04-18 21:30;92;12;93;12
2024-04-18 21:40;95;12;94;12
2024-04-18 21:50;97;12;98;12
2024-04-18 22:00;99;12;98;11
2024-04-18 22:10;103;12;101;12
2024-04-18 22:20;108;12;105;12
2024-04-18 22:30;111;12;114;12
2024-04-18 22:40;114;12;121;12
2024-04-18 22:50;117;12;115;11
2024-04-18 23:00;118;12;116;11
2024-04-18 23:10;120;13;120;13
2024-04-18 23:20;126;13;120;15
2024-04-18 23:30;129;14;131;14
2024-04-18 23:40;133;14;141;14
2024-04-18 23:50;138;14;135;14
2024-04-19 00:00;140;15;138;14
2024-04-19 00:10;140;15;145;16
2024-04-19 00:20;144;15;139;16
2024-04-19 00:30;149;16;143;15
2024-04-19 00:40;153;15;155;15
2024-04-19 00:50;160;15;165;16
2024-04-19 01:00;168;15;164;15
2024-04-19 01:10;172;15;173;15
2024-04-19 01:20;175;15;182;15
2024-04-19 01:30;180;15;176;14
2024-04-19 01:40;185;16;182;16
2024-04-19 01:50;191;16;189;17
2024-04-19 02:00;200;16;197;16
2024-04-19 02:10;204;16;212;16
2024-04-19 02:20;208;16;218;17
2024-04-19 02:30;211;15;206;16
2024-04-19 02:40;214;16;206;14
2024-04-19 02:50;221;16;215;14
2024-04-19 03:00;225;16;226;17
2024-04-19 03:10;229;16;251;19
2024-04-19 03:20;231;16;229;15
2024-04-19 03:30;231;16;224;13
2024-04-19 03:40;226;15;227;15
2024-04-19 03:50;228;16;223;16
2024-04-19 04:00;233;17;229;17
2024-04-19 04:10;238;17;236;18
2024-04-19 04:20;239;16;252;17
2024-04-19 04:30;233;16;250;15
2024-04-19 04:40;229;16;228;15
2024-04-19 04:50;229;15;201;15
2024-04-19 05:00;228;15;216;16
2024-04-19 05:10;230;15;249;16
2024-04-19 05:20;240;16;246;15
2024-04-19 05:30;246;16;239;15
2024-04-19 05:40;247;15;250;16
2024-04-19 05:50;247;16;248;16
2024-04-19 06:00;247;16;250;15
2024-04-19 06:10;244;16;246;16
2024-04-19 06:20;241;17;243;17
2024-04-19 06:30;240;17;231;18
2024-04-19 06:40;241;17;;
2024-04-19 06:50;242;18;;
2024-04-19 07:00;244;17;249;17
2024-04-19 07:10;243;17;250;18
2024-04-19 07:20;240;17;241;17
2024-04-19 07:30;237;18;231;16
2024-04-19 07:40;231;17;229;18
2024-04-19 07:50;229;17;233;19
2024-04-19 08:00;232;18;223;16
2024-04-19 08:10;235;17;229;17
2024-04-19 08:20;233;17;248;19
2024-04-19 08:30;231;17;241;16
2024-04-19 08:40;231;16;224;16
2024-04-19 08:50;231;16;215;15
2024-04-19 09:00;237;16;228;15
2024-04-19 09:10;245;16;249;17
2024-04-19 09:20;249;16;269;17
2024-04-19 09:30;252;16;262;15
2024-04-19 09:40;252;15;239;15
2024-04-19 09:50;248;14;243;15
2024-04-19 10:00;247;15;246;14
2024-04-19 10:10;251;15;252;13
2024-04-19 10:20;253;16;255;16
2024-04-19 10:30;254;16;260;18
2024-04-19 10:40;252;16;;
2024-04-19 10:50;252;16;;
2024-04-19 11:00;251;15;243;14
2024-04-19 11:10;251;15;254;15
2024-04-19 11:20;255;14;257;15
2024-04-19 11:30;260;15;253;14
2024-04-19 11:40;261;15;268;14
2024-04-19 11:50;261;15;270;15
2024-04-19 12:00;259;15;255;15
2024-04-19 12:10;254;15;257;15
2024-04-19 12:20;249;15;247;15
2024-04-19 12:30;249;15;240;13
2024-04-19 12:40;249;15;248;17
2024-04-19 12:50;251;15;255;17
2024-04-19 13:00;256;16;256;14
2024-04-19 13:10;259;16;254;15
2024-04-19 13:20;261;17;265;16
2024-04-19 13:30;259;17;267;19
2024-04-19 13:40;255;18;262;19
2024-04-19 13:50;251;18;248;18
2024-04-19 14:00;253;18;232;17
2024-04-19 14:10;253;18;248;18
2024-04-19 14:20;255;18;275;19
2024-04-19 14:30;262;19;264;19
2024-04-19 14:40;262;19;254;19
2024-04-19 14:50;254;19;268;20
2024-04-19 15:00;247;18;250;19
2024-04-19 15:10;241;18;232;16
2024-04-19 15:20;235;18;232;16
2024-04-19 15:30;238;18;221;19
2024-04-19 15:40;246;19;239;19
2024-04-19 15:50;255;20;264;21
2024-04-19 16:00;262;20;274;21
2024-04-19 16:10;264;19;275;21
2024-04-19 16:20;263;19;259;18
2024-04-19 16:30;262;20;249;15
2024-04-19 16:40;261;20;257;20
2024-04-19 16:50;262;21;268;25
2024-04-19 17:00;265;23;273;23
2024-04-19 17:10;269;25;262;23
2024-04-19 17:20;271;25;266;26
2024-04-19 17:30;273;26;278;27
2024-04-19 17:40;277;27;278;26
2024-04-19 17:50;280;27;281;28
2024-04-19 18:00;281;27;284;28
2024-04-19 18:10;282;29;280;26
2024-04-19 18:20;282;31;284;29
2024-04-19 18:30;284;35;280;32
2024-04-19 18:40;286;37;283;41
2024-04-19 18:50;294;39;291;45
2024-04-19 19:00;303;42;293;38
2024-04-19 19:10;310;43;321;41
2024-04-19 19:20;313;42;329;45
2024-04-19 19:30;315;42;316;44
2024-04-19 19:40;315;42;308;40
2024-04-19 19:50;315;44;302;38
2024-04-19 20:00;318;45;319;44
2024-04-19 20:10;319;46;330;52
2024-04-19 20:20;321;48;330;51
2024-04-19 20:30;331;52;315;47
2024-04-19 20:40;342;57;313;48
2024-04-19 20:50;349;63;366;62
2024-04-19 21:00;358;71;388;79
2024-04-19 21:10;368;77;361;81
2024-04-19 21:20;363;84;361;84
2024-04-19 21:30;356;90;364;81
2024-04-19 21:40;352;95;342;97
2024-04-19 21:50;346;101;350;105
2024-04-19 22:00;345;108;341;106
2024-04-19 22:10;346;111;335;118
2024-04-19 22:20;343;113;358;115
2024-04-19 22:30;341;114;346;110
2024-04-19 22:40;342;112;335;114
2024-04-19 22:50;337;110;333;112
2024-04-19 23:00;331;112;337;109
2024-04-19 23:10;327;112;334;106
2024-04-19 23:20;325;111;318;117
2024-04-19 23:30;324;113;312;115
2024-04-19 23:40;318;114;323;106
2024-04-19 23:50;314;109;333;120
2024-04-20 00:00;313;105;305;111
2024-04-20 00:10;313;105;297;93
2024-04-20 00:20;310;105;306;95
2024-04-20 00:30;314;109;322;104
2024-04-20 00:40;318;115;321;124
2024-04-20 00:50;316;122;325;129
2024-04-20 01:00;313;125;315;124
2024-04-20 01:10;307;123;298;128
2024-04-20 01:20;303;123;304;119
2024-04-20 01:30;303;121;295;117
2024-04-20 01:40;301;117;305;125
2024-04-20 01:50;296;116;311;116
2024-04-20 02:00;292;114;292;110
2024-04-20 02:10;287;112;279;114
2024-04-20 02:20;279;113;274;106
2024-04-20 02:30;273;111;278;115
2024-04-20 02:40;270;104;273;122
2024-04-20 02:50;269;99;261;98
2024-04-20 03:00;268;96;263;80
2024-04-20 03:10;267;89;269;82
2024-04-20 03:20;267;82;275;97
2024-04-20 03:30;267;84;268;87
2024-04-20 03:40;262;85;262;66
2024-04-20 03:50;255;80;261;86
2024-04-20 04:00;252;78;244;89
2024-04-20 04:10;251;81;242;72
2024-04-20 04:20;252;78;252;76
2024-04-20 04:30;258;74;254;80
2024-04-20 04:40;261;76;269;73
2024-04-20 04:50;262;78;271;67
2024-04-20 05:00;261;74;260;83
2024-04-20 05:10;258;72;257;85
2024-04-20 05:20;254;72;249;64
2024-04-20 05:30;251;69;253;62
2024-04-20 05:40;252;65;250;68
2024-04-20 05:50;254;64;247;67
2024-04-20 06:00;252;63;262;65
2024-04-20 06:10;248;61;260;60
2024-04-20 06:20;245;59;240;56
2024-04-20 06:30;240;55;229;59
2024-04-20 06:40;236;52;233;57
2024-04-20 06:50;235;51;236;43
2024-04-20 07:00;238;49;240;45
2024-04-20 07:10;240;46;239;51
2024-04-20 07:20;244;46;243;47
2024-04-20 07:30;248;48;244;43
2024-04-20 07:40;251;48;254;45
2024-04-20 07:50;250;46;261;54
2024-04-20 08:00;249;46;251;50
2024-04-20 08:10;248;45;242;40
2024-04-20 08:20;245;41;238;40
2024-04-20 08:30;244;41;246;39
2024-04-20 08:40;248;44;246;36
2024-04-20 08:50;252;46;250;48
2024-04-20 09:00;253;48;258;55
2024-04-20 09:10;256;51;258;53
2024-04-20 09:20;258;52;255;49
2024-04-20 09:30;259;51;260;51
2024-04-20 09:40;257;50;259;53
2024-04-20 09:50;253;50;261;48
2024-04-20 10:00;248;51;252;47
2024-04-20 10:10;244;54;233;49
2024-04-20 10:20;239;56;235;59
2024-04-20 10:30;238;58;239;66
2024-04-20 10:40;238;61;238;58
2024-04-20 10:50;235;61;245;59
2024-04-20 11:00;231;58;234;64
2024-04-20 11:10;228;57;218;56
2024-04-20 11:20;223;58;222;52
2024-04-20 11:30;221;59;221;54
2024-04-20 11:40;222;61;222;63
2024-04-20 11:50;221;64;222;69
2024-04-20 12:00;223;67;222;68
2024-04-20 12:10;226;70;220;65
2024-04-20 12:20;230;73;229;69
2024-04-20 12:30;234;73;237;81
2024-04-20 12:40;237;73;242;80
2024-04-20 12:50;239;74;242;69
2024-04-20 13:00;240;71;236;67
2024-04-20 13:10;239;70;240;71
2024-04-20 13:20;238;73;241;67
2024-04-20 13:30;236;76;234;75
2024-04-20 13:40;233;76;237;86
2024-04-20 13:50;229;77;230;79
2024-04-20 14:00;228;78;223;73
2024-04-20 14:10;225;79;223;71
2024-04-20 14:20;224;80;226;81
2024-04-20 14:30;224;81;223;91
2024-04-20 14:40;225;81;;
2024-04-20 14:50;225;84;;
2024-04-20 15:00;225;87;226;72
2024-04-20 15:10;227;89;226;95
2024-04-20 15:20;228;93;226;104
2024-04-20 15:30;229;97;231;97
2024-04-20 15:40;230;95;233;95
2024-04-20 15:50;228;90;231;94
2024-04-20 16:00;227;87;227;87
2024-04-20 16:10;228;84;218;77
2024-04-20 16:20;228;83;228;80
2024-04-20 16:30;230;85;235;83
2024-04-20 16:40;233;86;230;90
2024-04-20 16:50;233;87;237;93
2024-04-20 17:00;231;87;236;85
2024-04-20 17:10;232;84;227;84
2024-04-20 17:20;234;83;226;81
2024-04-20 17:30;236;85;234;78
2024-04-20 17:40;236;87;249;88
2024-04-20 17:50;237;88;245;96
2024-04-20 18:00;238;90;225;92
2024-04-20 18:10;237;90;234;87
2024-04-20 18:20;236;88;239;87
2024-04-20 18:30;241;85;240;90
2024-04-20 18:40;244;83;244;85
2024-04-20 18:50;246;83;247;77
2024-04-20 19:00;248;85;250;76
2024-04-20 19:10;248;91;;
2024-04-20 19:20;248;94;;
2024-04-20 19:30;249;95;247;112
2024-04-20 19:40;251;93;247;94
2024-04-20 19:50;252;87;255;80
2024-04-20 20:00;252;79;260;78
2024-04-20 20:10;252;74;250;73
2024-04-20 20:20;251;72;248;72
2024-04-20 20:30;252;75;248;66
2024-04-20 20:40;254;79;247;72
2024-04-20 20:50;252;80;266;93
2024-04-20 21:00;251;82;260;90
2024-04-20 21:10;248;80;239;79
2024-04-20 21:20;241;76;241;75
2024-04-20 21:30;239;75;233;63
2024-04-20 21:40;240;75;234;74
2024-04-20 21:50;239;75;248;85
2024-04-20 22:00;242;79;243;77
2024-04-20 22:10;243;81;236;75
2024-04-20 22:20;239;79;248;85
2024-04-20 22:30;237;79;242;83
2024-04-20 22:40;237;79;224;73
2024-04-20 22:50;232;76;235;78
2024-04-20 23:00;231;74;237;74
2024-04-20 23:10;234;73;222;70
2024-04-20 23:20;233;70;235;77
2024-04-20 23:30;231;67;239;67
2024-04-20 23:40;234;67;232;60
2024-04-20 23:50;234;66;228;61
2024-04-21 00:00;233;65;234;70
2024-04-21 00:10;235;67;238;73
2024-04-21 00:20;237;68;235;63
2024-04-21 00:30;237;68;239;66
2024-04-21 00:40;237;66;237;68
2024-04-21 00:50;236;66;237;68
2024-04-21 01:00;235;66;237;64
2024-04-21 01:10;237;65;229;63
2024-04-21 01:20;237;63;237;66
2024-04-21 01:30;235;62;243;62
2024-04-21 01:40;232;59;238;59
2024-04-21 01:50;227;57;230;58
2024-04-21 02:00;224;55;212;51
2024-04-21 02:10;224;54;214;53
2024-04-21 02:20;224;53;226;55
2024-04-21 02:30;228;54;236;52
2024-04-21 02:40;233;55;230;53
2024-04-21 02:50;234;56;234;57
2024-04-21 03:00;235;57;238;58
2024-04-21 03:10;235;56;234;59
2024-04-21 03:20;229;54;241;56
2024-04-21 03:30;224;54;226;50
2024-04-21 03:40;219;54;207;48
2024-04-21 03:50;214;52;213;56
2024-04-21 04:00;216;53;210;58
2024-04-21 04:10;221;55;216;50
2024-04-21 04:20;226;54;232;53
2024-04-21 04:30;235;52;236;58
2024-04-21 04:40;243;52;234;51
2024-04-21 04:50;250;52;255;49
2024-04-21 05:00;256;51;259;50
2024-04-21 05:10;259;51;268;53
2024-04-21 05:20;257;52;264;52
2024-04-21 05:30;258;53;247;52
2024-04-21 05:40;260;52;249;55
2024-04-21 05:50;265;51;261;52
2024-04-21 06:00;271;50;279;50
2024-04-21 06:10;275;48;287;48
2024-04-21 06:20;278;47;279;46
2024-04-21 06:30;279;48;268;44
2024-04-21 06:40;280;51;275;49
2024-04-21 06:50;279;53;288;53
2024-04-21 07:00;276;54;288;61
2024-04-21 07:10;271;57;276;57
2024-04-21 07:20;264;60;251;52
2024-04-21 07:30;257;62;252;63
2024-04-21 07:40;255;66;252;68
2024-04-21 07:50;259;72;255;71
2024-04-21 08:00;260;75;265;78
2024-04-21 08:10;262;77;272;81
2024-04-21 08:20;265;79;258;75
2024-04-21 08:30;265;80;261;80
2024-04-21 08:40;262;79;270;83
2024-04-21 08:50;261;80;265;79
2024-04-21 09:00;261;82;258;78
2024-04-21 09:10;260;83;251;79
2024-04-21 09:20;257;83;261;89
2024-04-21 09:30;253;83;264;90
2024-04-21 09:40;252;84;253;81
2024-04-21 09:50;252;83;235;75
2024-04-21 10:00;248;82;248;83
2024-04-21 10:10;247;83;258;85
2024-04-21 10:20;246;83;247;87
2024-04-21 10:30;240;80;246;86
2024-04-21 10:40;232;76;232;75
2024-04-21 10:50;230;71;217;69
2024-04-21 11:00;229;67;220;63
2024-04-21 11:10;232;66;234;64
2024-04-21 11:20;234;67;244;62
2024-04-21 11:30;232;67;247;70
2024-04-21 11:40;227;65;226;76
2024-04-21 11:50;219;66;209;62
2024-04-21 12:00;212;68;209;55
2024-04-21 12:10;210;68;203;68
2024-04-21 12:20;212;69;213;79
2024-04-21 12:30;213;72;217;75
2024-04-21 12:40;215;71;216;70
2024-04-21 12:50;213;67;216;67
2024-04-21 13:00;212;62;212;63
2024-04-21 13:10;210;59;206;58
2024-04-21 13:20;206;56;208;52
2024-04-21 13:30;202;54;209;56
2024-04-21 13:40;204;56;193;52
2024-04-21 13:50;205;60;192;53
2024-04-21 14:00;203;61;217;68
2024-04-21 14:10;203;65;212;69
2024-04-21 14:20;202;68;199;63
2024-04-21 14:30;198;67;194;70
2024-04-21 14:40;194;66;187;68
2024-04-21 14:50;192;64;196;66
2024-04-21 15:00;188;62;196;63
2024-04-21 15:10;186;59;188;55
2024-04-21 15:20;184;57;173;57
2024-04-21 15:30;183;55;176;55
2024-04-21 15:40;181;55;188;57
2024-04-21 15:50;182;55;188;53
2024-04-21 16:00;184;55;182;51
2024-04-21 16:10;183;53;178;58
2024-04-21 16:20;178;51;184;54
2024-04-21 16:30;173;48;181;48
2024-04-21 16:40;169;46;167;42
2024-04-21 16:50;165;45;156;39
2024-04-21 17:00;161;44;159;46
2024-04-21 17:10;158;43;164;49
2024-04-21 17:20;157;41;161;43
2024-04-21 17:30;157;38;149;36
2024-04-21 17:40;158;36;150;29
2024-04-21 17:50;157;34;163;32
2024-04-21 18:00;158;33;167;39
2024-04-21 18:10;160;33;154;36
2024-04-21 18:20;158;33;155;29
2024-04-21 18:30;156;31;160;29
2024-04-21 18:40;156;29;152;30
2024-04-21 18:50;156;30;157;29
2024-04-21 19:00;156;30;158;30
2024-04-21 19:10;157;29;154;31
2024-04-21 19:20;155;28;161;28
2024-04-21 19:30;154;26;155;27
2024-04-21 19:40;154;24;147;23
2024-04-21 19:50;151;22;154;20
2024-04-21 20:00;148;21;152;21
2024-04-21 20:10;147;20;147;20
2024-04-21 20:20;146;20;141;21
2024-04-21 20:30;146;20;141;19
2024-04-21 20:40;146;19;149;20
2024-04-21 20:50;148;19;151;18
2024-04-21 21:00;150;18;146;18
2024-04-21 21:10;149;18;151;19
2024-04-21 21:20;147;18;151;17
2024-04-21 21:30;146;18;145;19
2024-04-21 21:40;146;17;144;18
2024-04-21 21:50;144;17;141;15
2024-04-21 22:00;144;17;147;17
2024-04-21 22:10;146;17;142;18
2024-04-21 22:20;147;18;146;17
2024-04-21 22:30;147;18;153;17
2024-04-21 22:40;148;17;149;19
2024-04-21 22:50;146;17;147;18
2024-04-21 23:00;144;16;144;16
2024-04-21 23:10;142;16;138;14
2024-04-21 23:20;140;16;141;15
2024-04-21 23:30;140;16;141;18
2024-04-21 23:40;142;17;138;16
2024-04-21 23:50;144;18;143;17
2024-04-22 00:00;143;17;149;21
2024-04-22 00:10;144;18;147;18
2024-04-22 00:20;143;17;140;15
2024-04-22 00:30;142;16;141;17
2024-04-22 00:40;142;17;140;15
2024-04-22 00:50;143;17;142;16
2024-04-22 01:00;144;18;148;20
2024-04-22 01:10;145;19;146;19
2024-04-22 01:20;145;19;144;18
2024-04-22 01:30;145;19;146;20
2024-04-22 01:40;145;19;142;20
2024-04-22 01:50;145;20;147;19
2024-04-22 02:00;147;21;147;19
2024-04-22 02:10;147;22;145;24
2024-04-22 02:20;147;24;152;25
2024-04-22 02:30;147;25;146;25
2024-04-22 02:40;146;25;143;26
2024-04-22 02:50;144;25;149;26
2024-04-22 03:00;144;24;142;25
2024-04-22 03:10;143;22;142;21
2024-04-22 03:20;140;21;143;20
2024-04-22 03:30;138;20;138;19
2024-04-22 03:40;134;20;136;20
2024-04-22 03:50;130;21;130;21
2024-04-22 04:00;129;21;124;21
2024-04-22 04:10;127;22;124;22
2024-04-22 04:20;125;21;130;23
2024-04-22 04:30;124;20;127;21
2024-04-22 04:40;124;20;122;19
2024-04-22 04:50;124;19;118;17
2024-04-22 05:00;123;19;124;18
2024-04-22 05:10;123;19;130;20
2024-04-22 05:20;125;18;120;20
2024-04-22 05:30;125;18;122;18
2024-04-22 05:40;127;18;127;16
2024-04-22 05:50;131;18;124;17
2024-04-22 06:00;133;17;140;19
2024-04-22 06:10;133;17;143;18
2024-04-22 06:20;133;16;131;15
2024-04-22 06:30;129;15;127;14
2024-04-22 06:40;125;14;124;14
2024-04-22 06:50;123;14;121;15
2024-04-22 07:00;121;14;122;14
2024-04-22 07:10;120;14;121;13
2024-04-22 07:20;117;13;118;14
2024-04-22 07:30;116;13;116;13
2024-04-22 07:40;115;12;110;12
2024-04-22 07:50;114;12;113;12
2024-04-22 08:00;115;11;116;11
2024-04-22 08:10;118;11;114;11
2024-04-22 08:20;121;10;123;10
2024-04-22 08:30;123;10;125;10
2024-04-22 08:40;125;10;125;10
2024-04-22 08:50;124;9;126;9
2024-04-22 09:00;121;9;124;9
2024-04-22 09:10;116;8;122;9
2024-04-22 09:20;111;8;109;7
2024-04-22 09:30;106;8;100;7
2024-04-22 09:40;101;7;99;7
2024-04-22 09:50;99;8;99;8
2024-04-22 10:00;98;8;98;8
2024-04-22 10:10;98;8;98;8
2024-04-22 10:20;99;7;96;8
2024-04-22 10:30;99;7;100;6
2024-04-22 10:40;102;7;103;6
2024-04-22 10:50;105;7;100;7
2024-04-22 11:00;106;8;111;8
2024-04-22 11:10;108;8;111;9
2024-04-22 11:20;110;9;106;9
2024-04-22 11:30;109;9;114;9
2024-04-22 11:40;108;9;110;9
2024-04-22 11:50;110;8;102;8
2024-04-22 12:00;110;8;109;8
2024-04-22 12:10;110;8;115;8
2024-04-22 12:20;112;8;115;9
2024-04-22 12:30;111;8;111;8
2024-04-22 12:40;110;9;108;8
2024-04-22 12:50;109;9;106;9
2024-04-22 13:00;109;9;109;9
2024-04-22 13:10;109;9;110;10
2024-04-22 13:20;109;9;110;10
2024-04-22 13:30;109;10;109;9
2024-04-22 13:40;110;10;105;9
2024-04-22 13:50;110;10;110;11
2024-04-22 14:00;110;11;115;12
2024-04-22 14:10;112;12;110;11
2024-04-22 14:20;112;12;112;11
2024-04-22 14:30;112;13;115;14
2024-04-22 14:40;114;13;110;14
2024-04-22 14:50;115;14;115;13
2024-04-22 15:00;114;14;118;15
2024-04-22 15:10;114;14;115;15
2024-04-22 15:20;113;14;111;14
2024-04-22 15:30;112;14;113;14
2024-04-22 15:40;112;13;110;14
2024-04-22 15:50;111;13;112;11
2024-04-22 16:00;112;13;113;12
2024-04-22 16:10;112;12;109;13
2024-04-22 16:20;111;13;114;13
2024-04-22 16:30;110;13;110;13
2024-04-22 16:40;110;13;111;14
2024-04-22 16:50;109;13;108;14
2024-04-22 17:00;110;13;108;12
2024-04-22 17:10;111;13;110;12
2024-04-22 17:20;111;13;113;13
2024-04-22 17:30;110;13;115;13
2024-04-22 17:40;109;12;108;13
2024-04-22 17:50;107;12;106;12
2024-04-22 18:00;107;12;103;11
2024-04-22 18:10;109;12;105;13
2024-04-22 18:20;110;12;115;12
2024-04-22 18:30;112;13;117;13
2024-04-22 18:40;113;12;111;13
2024-04-22 18:50;112;12;113;12
2024-04-22 19:00;111;11;110;11
2024-04-22 19:10;110;10;111;9
2024-04-22 19:20;109;9;112;9
2024-04-22 19:30;108;9;106;9
2024-04-22 19:40;108;9;106;9
2024-04-22 19:50;108;9;107;8
2024-04-22 20:00;109;9;109;9
2024-04-22 20:10;110;9;113;10
2024-04-22 20:20;110;9;111;9
2024-04-22 20:30;110;9;109;9
2024-04-22 20:40;109;9;107;9
2024-04-22 20:50;110;9;108;9
2024-04-22 21:00;110;8;111;8
2024-04-22 21:10;111;8;113;8
2024-04-22 21:20;111;8;110;7
2024-04-22 21:30;109;8;111;9
2024-04-22 21:40;105;8;108;9
2024-04-22 21:50;103;8;101;8
2024-04-22 22:00;100;8;97;7
2024-04-22 22:10;98;7;96;7
2024-04-22 22:20;98;7;100;7
2024-04-22 22:30;98;7;98;7
2024-04-22 22:40;98;7;98;8
2024-04-22 22:50;97;7;100;7
2024-04-22 23:00;96;7;96;7
2024-04-22 23:10;94;7;93;7
2024-04-22 23:20;92;7;93;6
2024-04-22 23:30;90;7;89;7
2024-04-22 23:40;88;7;88;7
2024-04-22 23:50;86;7;88;7
2024-04-23 00:00;85;8;83;8
2024-04-23 00:10;84;8;83;8
2024-04-23 00:20;83;8;84;8
2024-04-23 00:30;83;8;82;7
2024-04-23 00:40;83;8;83;9
2024-04-23 00:50;85;8;83;7
2024-04-23 01:00;86;8;85;7
2024-04-23 01:10;87;8;90;9
2024-04-23 01:20;87;8;89;9
2024-04-23 01:30;87;9;87;9
2024-04-23 01:40;86;8;85;8
2024-04-23 01:50;85;8;84;8
2024-04-23 02:00;83;9;85;8
2024-04-23 02:10;83;9;83;9
2024-04-23 02:20;82;9;80;10
2024-04-23 02:30;82;9;82;10
2024-04-23 02:40;82;9;82;8
2024-04-23 02:50;82;10;82;9
2024-04-23 03:00;83;10;82;10
2024-04-23 03:10;81;10;84;11
2024-04-23 03:20;81;10;83;10
2024-04-23 03:30;80;10;76;9
2024-04-23 03:40;79;9;78;10
2024-04-23 03:50;78;9;81;10
2024-04-23 04:00;79;9;78;8
2024-04-23 04:10;78;9;78;8
2024-04-23 04:20;77;10;78;10
2024-04-23 04:30;76;10;75;11
2024-04-23 04:40;76;10;74;11
2024-04-23 04:50;75;10;75;10
2024-04-23 05:00;73;9;77;9
2024-04-23 05:10;71;8;72;8
2024-04-23 05:20;70;8;68;7
2024-04-23 05:30;70;8;65;8
2024-04-23 05:40;69;7;69;8
2024-04-23 05:50;69;7;71;8
2024-04-23 06:00;68;7;69;7
2024-04-23 06:10;68;6;67;6
2024-04-23 06:20;67;6;67;6
2024-04-23 06:30;65;6;65;6
2024-04-23 06:40;67;6;67;6
2024-04-23 06:50;68;6;68;6
2024-04-23 07:00;67;6;67;6
2024-04-23 07:10;69;6;69;6
2024-04-23 07:20;66;5;66;5
2024-04-23 07:30;64;5;64;5